Regional Weather Roundup
Issued by NWS

Home | Current Version | Previous Version | Text Only | Print | Product List | Glossary Off
Versions: 1 2 3 4 5 6 7 8 9 10 11 12 13 14 15 16 17 18 19 20 21 22 23 24 25 26 27 28 29 30 31 32 33 34 35 36 37 38 39 40 41 42 43 44 45 46 47 48 49 50

000
ASUS45 KTFX 302110
RWRMT
MONTANA REGIONAL WEATHER ROUNDUP
NATIONAL WEATHER SERVICE GREAT FALLS MT
300 PM MDT TUE JUN 30 2015

NOTE: "FAIR" INDICATES FEW OR NO CLOUDS BELOW 12000 FEET WITH NO
SIGNIFICANT WEATHER AND/OR OBSTRUCTIONS TO VISIBILITY.

MTZ001>007-043-302200-
WEST OF THE DIVIDE

CITY           SKY/WX    TMP DP  RH WIND       PRES   REMARKS
KALISPELL      PTCLDY    91  44  19 VRB7      29.99F
MISSOULA       MOSUNNY   90  46  21 NW18G24   30.01F
BUTTE          SUNNY     84  43  23 NW8G22    30.15F
MULLAN PASS    SUNNY     75  45  34 VRB6      30.24F
DEER LODGE       N/A     86  50  28 NW15      30.12F
EUREKA           N/A     84  54  34 CALM      30.01F
HAMILTON         N/A     88  48  25 S3        30.02F
PLAINS           N/A     93  45  19 SW8       29.99F
RONAN            N/A     91  45  20 W8        30.05F
$$

MTZ008-052>055-302200-
SOUTHWEST MONTANA

CITY           SKY/WX    TMP DP  RH WIND       PRES   REMARKS
BOZEMAN        SUNNY     90  47  22 VRB3      30.05F
DILLON         MOSUNNY   87  50  27 NW12G31   30.09F
W YELLOWSTONE  MOSUNNY   75  52  43 S6        30.23F
THREE FORKS      N/A     92  44  18 W10       30.02F
TWIN BRIDGES     N/A     89  48  24 S6        30.06F
$$

MTZ009-010-012-014-046-048-049-054-302200-
EAST SLOPES AND CENTRAL MONTANA

CITY           SKY/WX    TMP DP  RH WIND       PRES   REMARKS
CUT BANK       SUNNY     85  47  26 NW16G26   30.01R
GREAT FALLS    SUNNY     91  40  16 NW17G25   29.97F
MALMSTROM AFB  MOSUNNY   91  37  15 NW16G28   29.97F
HELENA         MOSUNNY   90  46  21 NW20G26   30.00F
CONRAD           N/A     88  50  27 W13       30.02S
$$

MTZ011-013-016-021-045-047-050-051-302200-
NORTH CENTRAL MONTANA

CITY           SKY/WX    TMP DP  RH WIND       PRES   REMARKS
HAVRE          MOSUNNY   89  53  29 NW25G35   29.90R
CHINOOK          N/A     88  54  31 W22G30    29.86R
FORT BENTON      N/A     91  37  15 W17G31    29.91F
$$

MTZ017>020-022>027-061-062-302200-
NORTHEAST MONTANA

CITY           SKY/WX    TMP DP  RH WIND       PRES   REMARKS
JORDAN           N/A     91  59  33 W6        29.83F HX  90
SIDNEY         MOSUNNY   86  63  45 SE15      29.84F
WOLF POINT     SUNNY     90  63  40 E16       29.81F HAZE    HX  91
PLENTYWOOD       N/A     72  57  60 E17       29.89F
POPLAR           N/A     84  63  48 NE16G22   29.81
SCOBEY           N/A     80  54  40 E15       29.88S
$$

MTZ028>42-056>058-302200-
SOUTHCENTRAL AND SOUTHEAST MONTANA

CITY           SKY/WX    TMP DP  RH WIND       PRES   REMARKS
BAKER          MOSUNNY   86  65  49 VRB3      29.87F
BILLINGS       MOSUNNY   94  45  18 NW18G30   29.96S HX  90
LIVINGSTON     SUNNY     91  47  21 W23       30.04F
MILES CITY     MOSUNNY   96  53  23 NW15G29   29.83F HX  93
EKALAKA          N/A     86  56  35 W7        29.91F
FORSYTH          N/A     91  52  25 NW13G21   29.84F
LAUREL           N/A     94  49  21 NW16      29.95F HX  90
ROUNDUP          N/A     93  43  17 W20       29.86S
$$

REGIONAL REPORTS...DAKOTAS

CITY           SKY/WX    TMP DP  RH WIND       PRES   REMARKS
WILLISTON      PTSUNNY   78  57  48 E16       29.89S HAZE
MINOT          CLOUDY    69  63  81 NE3       29.90F HAZE
DICKINSON      MOSUNNY   76  63  64 SE16      29.88F
BEACH          FAIR      81  66  61 SE15      29.87F
CROSBY         RAIN      63  63 100 NE3       29.94R
BISMARCK       CLOUDY    77  59  53 SE8       29.89F
GRAND FORKS    CLOUDY    76  58  53 SE6       29.91S
FARGO          CLOUDY    74  58  57 E6        29.90F
BUFFALO SD       N/A     81  66  60 SE10      29.83F
RAPID CITY     PTSUNNY   83  70  64 NE14      29.91R
$$

REGIONAL REPORTS...WYOMING/IDAHO/WASHINGTON

CITY           SKY/WX    TMP DP  RH WIND       PRES   REMARKS
GILLETTE       MOSUNNY   87  55  33 NW16      30.00F
SHERIDAN       MOSUNNY   91  52  26 NW17G30   29.98F
BUFFALO WY     MOSUNNY   77  62  59 NW8       30.08S
CODY           PTSUNNY   81  59  47 SW9       30.09F
YELLOWSTONE LA   N/A     77  38  24 W8G20     30.32F
IDAHO FALLS    MOSUNNY   84  62  47 W3        30.10F
SALMON         SUNNY     90  57  33 W5        29.99F
BOISE          SUNNY     98  54  22 W9G22     29.96F HX  96
SPOKANE        MOSUNNY   92  46  20 VRB7G21   30.02F
$$

REGIONAL REPORTS...ALBERTA

CITY           SKY/WX    TMP DP  RH WIND       PRES   REMARKS
EDMONTON       CLOUDY    68  55  64 S3        30.00S
CALGARY        PTSUNNY   73  59  60 NE12G21   30.04R
LETHBRIDGE     MOSUNNY   79  57  47 N10G18    30.00R
MEDICINE HAT   SUNNY     79  54  41 N16G23    29.91R SMOKE
WATERTON GATE    N/A     84  46  26 W9          N/A
CARDSTON         N/A     79  57  47 N9G18       N/A
MILK RIVER       N/A     82  54  36 N18G28      N/A
ONEFOUR          N/A     82  52  34 NW29G35     N/A
$$

REGIONAL REPORTS...SASKATCHEWAN

CITY           SKY/WX    TMP DP  RH WIND       PRES   REMARKS
SWIFT CURRENT  PTSUNNY   75  57  53 E13G25    29.89S HAZE
REGINA         LGT RAIN  64  59  82 N3        29.94R SMOKE
SASKATOON        N/A     70  55  60 W6        29.95F SMOKE
CYPRESS HILLS    N/A     72  52  49 NW9G20      N/A
VAL MARIE        N/A     88  50  27 NW16        N/A
$$



USA.gov is the U.S. government's official web portal to all federal, state and local government web resources and services.